This is the latest recevied weather packets stored in our database for station/object WX1N. If no packets are shown the sender has not sent any weather packets the latest 10 day(s).
| Time | Temp. | Humidity | Pressure | Rain* | Wind** | Luminosity | Snow |
|---|---|---|---|---|---|---|---|
| 1777652103 | 12.78° C | 55% | 1009.1 hPa | 0 mm | - | - | - |
| 1777651804 | 12.22° C | 59% | 1009.1 hPa | 0 mm | - | - | - |
| 1777651503 | 11.67° C | 51% | 1009.3 hPa | 0 mm | - | - | - |
| 1777651204 | 12.22° C | 51% | 1009.3 hPa | 0 mm | - | - | - |
| 1777650904 | 12.22° C | 54% | 1009.4 hPa | 0 mm | - | - | - |
| 1777650603 | 12.22° C | 54% | 1009.4 hPa | 0 mm | - | - | - |
| 1777650304 | 12.22° C | 55% | 1009.4 hPa | 0 mm | - | - | - |
| 1777650003 | 12.22° C | 57% | 1009.4 hPa | 0 mm | - | - | - |
| 1777649704 | 12.22° C | 52% | 1009.5 hPa | 0 mm | - | - | - |
| 1777649404 | 12.22° C | 54% | 1009.4 hPa | 0 mm | - | - | - |
| 1777649103 | 12.22° C | 56% | 1009.4 hPa | 0 mm | - | - | - |
| 1777648804 | 11.67° C | 56% | 1009.5 hPa | 0 mm | - | - | - |
| 1777648504 | 11.67° C | 56% | 1009.5 hPa | 0 mm | - | - | - |
| 1777648203 | 11.67° C | 54% | 1009.6 hPa | 0 mm | - | - | - |
| 1777647904 | 11.67° C | 61% | 1009.6 hPa | 0 mm | - | - | - |
| 1777647604 | 11.67° C | 59% | 1009.6 hPa | 0 mm | - | - | - |
| 1777647304 | 11.11° C | 59% | 1009.6 hPa | 0 mm | - | - | - |
| 1777647004 | 10° C | 67% | 1009.6 hPa | 0 mm | - | - | - |
| 1777646703 | 10° C | 63% | 1009.6 hPa | 0 mm | - | - | - |
| 1777646404 | 10° C | 61% | 1009.6 hPa | 0 mm | - | - | - |
| 1777646103 | 10° C | 62% | 1009.6 hPa | 0 mm | - | - | - |
| 1777645804 | 10° C | 65% | 1009.6 hPa | 0 mm | - | - | - |
| 1777645503 | 10° C | 65% | 1009.7 hPa | 0 mm | - | - | - |
| 1777645204 | 10° C | 63% | 1009.7 hPa | 0 mm | - | - | - |
| 1777644904 | 10° C | 63% | 1009.7 hPa | 0 mm | - | - | - |
* Rain latest hour (hover to see other rain measurements)
** Current wind speed in m/s (hover to see current wind gust speed)